Location: Indian Hills
(32.9760°N, 85.9450°W)
Time: 14:49:03
(UTC+00:00)

ISS - Pass Details

Date: 12 March 2021
Orbit: 418 x 422 km, 51.6° (Epoch: 13 April)

Event Time Altitude Azimuth Distance (km) Brightness Sun altitude
Exits shadow 11:01:41 12° 314° (NW) 1,391 -1.5 -12.6°
Maximum altitude 11:04:47 89° 235° (SW) 420 -3.8 -11.9°
Drops below altitude 10° 11:08:07 10° 135° (SE) 1,487 -0.4 -11.2°
Sets 11:10:12 0° 135° (SE) 2,347 0.7 -10.8°
